www.pogodaiklimat.ru

Погода и климат >> Архив погоды >> Египет >> Sallum Plateau


ПОГОДА в Sallum Plateau

  • Прогноз погоды в Sallum Plateau
  • Монитор погоды в Sallum Plateau
  • Климат города

АРХИВ ПОГОДЫ в Sallum Plateau

Время (UTC), дата Ветер
(напр.,м/с)
 
Видим.   Явления Облачность Т
(С)
Тd
(С)
f
(%)
Тe
(С)
Тes
(С)
Комфортность P
(гПа)
Po
(гПа)
Тmin
(С)
Tmax
(С)
R
(мм)
R24
(мм)
S
(см)
06 14.04 Ю 3 10 км 4/0
[Ci]
+26.7 +6.9 28 +26 +30 жарко 1013.5 1014.0 +20.1
09 14.04 ЮВ 2 10 км 8/0
[Cs]
+26.9 +14.1 45 +29 +44 жарко 1015.2 1015.0
12 14.04 В 5 10 км ясно +26.9 +13.1 43 +29 +38 жарко 1014.4 1014.0
15 14.04 В 5 10 км ясно +26.3 +10.8 38 +27 +29 жарко 1013.3 1013.0
18 14.04 В 4 10 км ясно +23.4 +12.1 49 +26 +26 жарко 1013.7 1014.0 +31.0
21 14.04 В 3 10 км ясно +20.9 +12.3 58 +24 +24 комфорт 1014.4 1014.0
00 15.04 ЮВ 3 10 км ясно +23.5 +10.4 44 +25 +25 комфорт 1013.3 1013.0
03 15.04 ЮВ 4 10 км ясно +24.1 +6.6 32 +24 +24 комфорт 1012.5 1013.0
06 15.04 ЮВ 4 10 км ясно +24.3 +8.0 35 +25 +28 комфорт 1013.8 1014.0 +20.8
09 15.04 ЮВ 3 10 км ясно +27.9 +9.4 31 +28 +42 жарко 1014.3 1014.0
12 15.04 ЮВ 4 10 км ясно +27.0 +13.2 43 +29 +41 жарко 1013.4 1013.0
15 15.04 В 5 10 км ясно +26.1 +8.9 34 +26 +28 жарко 1012.1 1012.0
18 15.04 В 5 10 км ясно +25.1 +6.8 31 +25 +25 комфорт 1011.9 1012.0 +30.3
21 15.04 ЮВ 4 10 км ясно +27.4 +6.4 26 +27 +27 жарко 1012.4 1012.0
00 16.04 ЮВ 5 10 км ясно +24.7 +6.5 31 +25 +25 комфорт 1010.7 1011.0
03 16.04 Ю 6 10 км ясно +26.3 +0.8 19 +25 +25 комфорт 1010.2 1010.0
06 16.04 ЮЗ 3 10 км ясно +25.7 +1.4 20 +24 +28 комфорт 1013.5 1014.0 +23.9
15 16.04 С 10 10 км ясно +25.9 +11.5 41 +27 +27 жарко 1011.4 1011.0
18 16.04 С 10 10 км ясно +19.0 +12.6 66 +19 +19 1013.2 1013.0 +30.1
00 17.04 С 7 10 км ясно +16.4 +11.4 72 +15 +15 1015.5 1016.0
03 17.04 СЗ 6 10 км ясно +15.2 +11.4 78 +14 +14 1016.1 1016.0
06 17.04 С 7 10 км ясно +17.0 +12.0 72 +16 +17 1017.2 1017.0 +14.9
09 17.04 С 6 10 км ясно +21.3 +11.3 53 +23 +30 комфорт 1018.4 1018.0
12 17.04 СВ 7 10 км ясно +21.8 +13.0 57 +24 +30 комфорт 1017.6 1018.0
15 17.04 СВ 6 10 км ясно +19.4 +14.1 71 +21 +22 комфорт 1017.5 1018.0
18 17.04 С 5 10 км ясно +16.7 +13.3 80 +16 +16 1018.3 1018.0 +22.4
21 17.04 С 4 10 км ясно +16.4 +13.0 80 +16 +16 1019.3 1019.0
00 18.04 СЗ 1 10 км ясно +14.4 +12.0 85 +15 +15 1018.7 1019.0
03 18.04 С 3 10 км ясно +14.5 +13.1 91 +13 +13 1018.6 1019.0
06 18.04 СВ 4 10 км ясно +17.5 +15.2 86 +17 +21 1019.7 1020.0 +13.0
12 18.04 СВ 5 10 км ясно +20.4 +14.5 69 +23 +33 комфорт 1019.8 1020.0
18 20.04 В 6 10 км 4/4 600 м
[Sc]
+15.5 +13.5 88 +14 +14 1010.7 1011.0 +22.3
21 20.04 С 6 10 км ясно +18.1 +15.7 86 +18 +18 1012.9 1013.0
00 21.04 СВ 4 10 км ясно +17.8 +15.1 84 +18 +18 1011.7 1012.0
03 21.04 СВ 6 10 км ясно +17.3 +17.1 99 +17 +17 1011.3 1011.0

 

Местоположение метеостанции Sallum Plateau (Египет): широта 31.57 долгота 25.13 высота над уровнем моря 6 м.

В архиве по умолчанию представлена погода в Sallum Plateau за последнюю неделю. Архивные данные за месяц целиком и за предыдущие месяцы, начиная с января 2011 года, Вы можете получить, выбрав интересующий диапазон дат из раскрывающегося списка и нажав кнопку "Ввод!".


*Определитесь, кто Вы:
робот инопланетянин человек

Внимание! Время в таблицах - всемирное. Для получения местного времени необходимо прибавить поправку, которая в Sallum Plateau равна 2 ч.

Смотрите также архив погоды в соседних городах и на ближайших метеорологических станциях:

Погода в Mersa Matruh (Египет) (200 км)
Погода в Siwa (Египет) (264 км)
Погода в Dabaa (Египет) (325 км)
Погода в Kasteli (Греция) (402 км)
Погода в Sitia (Греция) (414 км)
Погода в Heraklion (Греция) (418 км)
Погода в Jalo (Ливия) (443 км)
Погода в Souda (Греция) (445 км)
Погода в Alexandria (Египет) (459 км)
Погода в Bingazi (Ливия) (463 км)

Пояснения к столбцам:

Ветер - указаны скорость ветра в м/с - средняя за 10 мин, порывы в срок и между сроками (в фигурных скобках) и направление, откуда дует ветер: С - северный, СВ - северо-восточный, В - восточный, ЮВ - юго-восточный, Ю - южный, ЮЗ - юго-западный, З - западный, СЗ - северо-западный.
Видимость - горизонтальная дальность видимости в метрах или километрах. При видимости от 1 до 10 км при отсутствии осадков обычно наблюдается дымка, при ухудшении видимости до 1 км и менее - туман. В сухую погоду видимость может ухудшаться дымом, пылью или мглою.
Явления - указаны атмосферные явления, наблюдавшиеся в срок или в последний час перед сроком; фигурными скобками обозначены явления, наблюдавшиеся между сроками (за 1-3 часа до срока); квадратными скобками обозначены град или гололедные отложения с указанием их диаметра в мм.
Облачность - указаны через наклонную черту общая и нижняя облачность в баллах и высота нижней границы облаков в метрах; квадратными скобками обозначены формы облаков: Ci - перистые, Cs - перисто-слоистые, Cc - перисто-кучевые, Ac - высококучевые, As - высокослоистые, Sc - слоисто-кучевые, Ns - слоисто-дождевые, Cu - кучевые, Cb - кучево-дождевые. Подробнее классификацию облаков см. в Атласе облаков (PDF).
T - Температура воздуха - температура, измеренная на высоте 2 м над землей.
Td - Температура точки росы - температура, при понижении до которой содержащийся в воздухе водяной пар достигнет насыщения.
f - Относительная влажность воздуха - влажноcть воздуха, измеренная на высоте 2 м над землей.
Te - Эффективная температура - температура, которую ощущает одетый по сезону человек в тени. Характеристика душности погоды. При расчете учитывается влияние влажности воздуха и скорости ветра на теплоощущения человека.
Tes - Эффективная температура на солнце - температура, которую ощущает человек, с поправкой на солнечный нагрев. Характеристика знойности погоды. Зависит от высоты солнца над горизонтом, облачности и скорости ветра. Ночью, в пасмурную погоду, а также при ветре 12 м/с и более поправка равна нулю.
P - Атмосферное давление - приведенное к уровню моря атмосферное давление.
Po - Атмосферное давление - измеренное на уровне метеостанции атмосферное давление.
Tmin - Минимальная температура - минимум температуры воздуха на высоте 2 м над землей.
Tmax - Максимальная температура - максимум температуры воздуха на высоте 2 м над землей.
R - Количество осадков - Количество выпавших осадков за период времени, мм. При наведении курсора мыши на число - период времени, за который выпало указанное количество осадков.
R24 - Количество осадков - Количество выпавших осадков за 24 часа, мм.
S - Снежный покров - Высота снежного покрова, см. При наведении курсора мыши на число - состояние снежного покрова и степень покрытия местности в баллах.